TimeCST,TemperatureF,Dew PointF,Humidity,Sea Level PressureIn,VisibilityMPH,Wind Direction,Wind SpeedMPH,Gust SpeedMPH,PrecipitationIn,Events,Conditions,WindDirDegrees,DateUTC
12:53 AM,24.1,21.0,88,30.09,10.0,SW,3.5,-,N/A,,Overcast,220,2013-12-26 06:53:00
1:53 AM,21.9,19.9,92,30.07,10.0,SW,6.9,-,N/A,,Overcast,220,2013-12-26 07:53:00
2:53 AM,21.9,19.0,89,30.06,10.0,South,3.5,-,N/A,,Overcast,190,2013-12-26 08:53:00
3:53 AM,19.9,18.0,92,30.05,10.0,South,8.1,-,N/A,,Overcast,170,2013-12-26 09:53:00
4:53 AM,21.0,18.0,88,30.06,10.0,South,4.6,-,N/A,,Overcast,190,2013-12-26 10:53:00
5:53 AM,18.0,16.0,92,30.05,10.0,Calm,Calm,-,N/A,,Overcast,0,2013-12-26 11:53:00
6:53 AM,21.0,18.0,88,30.04,10.0,South,9.2,-,N/A,,Overcast,190,2013-12-26 12:53:00
7:53 AM,23.0,19.9,88,30.05,10.0,SSW,4.6,-,N/A,,Overcast,210,2013-12-26 13:53:00
8:53 AM,24.1,21.0,88,30.07,10.0,SW,5.8,-,N/A,,Overcast,220,2013-12-26 14:53:00
9:53 AM,26.1,21.9,84,30.07,10.0,SW,3.5,-,N/A,,Overcast,220,2013-12-26 15:53:00
10:35 AM,26.6,21.2,80,30.02,10.0,SW,4.6,-,N/A,,Overcast,220,2013-12-26 16:35:00
10:53 AM,28.0,23.0,81,30.08,10.0,SW,5.8,-,N/A,,Overcast,230,2013-12-26 16:53:00
11:53 AM,33.1,24.1,70,30.07,10.0,West,9.2,-,N/A,,Partly Cloudy,270,2013-12-26 17:53:00
12:53 PM,33.1,24.1,70,30.07,10.0,NW,9.2,-,N/A,,Clear,310,2013-12-26 18:53:00
1:53 PM,32.0,24.1,73,30.08,10.0,NW,16.1,-,N/A,,Clear,310,2013-12-26 19:53:00
2:53 PM,32.0,24.1,73,30.09,10.0,NW,16.1,-,N/A,,Clear,310,2013-12-26 20:53:00
3:43 PM,30.2,24.8,80,30.06,10.0,NW,21.9,-,N/A,,Mostly Cloudy,320,2013-12-26 21:43:00
3:53 PM,30.9,25.0,79,30.12,10.0,NW,19.6,-,N/A,,Mostly Cloudy,320,2013-12-26 21:53:00
4:53 PM,30.0,25.0,82,30.16,10.0,NNW,16.1,-,N/A,,Overcast,340,2013-12-26 22:53:00
5:53 PM,28.9,24.1,82,30.17,10.0,North,6.9,-,N/A,,Overcast,350,2013-12-26 23:53:00
6:53 PM,28.0,24.1,85,30.18,10.0,NNW,4.6,-,N/A,,Overcast,340,2013-12-27 00:53:00
7:53 PM,26.1,21.9,84,30.19,10.0,Calm,Calm,-,N/A,,Overcast,0,2013-12-27 01:53:00
8:17 PM,21.2,19.4,93,30.13,7.0,SW,3.5,-,N/A,,Mostly Cloudy,230,2013-12-27 02:17:00
8:36 PM,17.6,15.8,93,30.13,5.0,SW,3.5,-,N/A,,Partly Cloudy,230,2013-12-27 02:36:00
8:53 PM,15.1,12.9,91,30.19,5.0,SSW,8.1,-,N/A,,Clear,210,2013-12-27 02:53:00
9:06 PM,12.2,10.4,92,30.13,3.0,SSW,6.9,-,N/A,,Scattered Clouds,210,2013-12-27 03:06:00
9:08 PM,12.2,10.4,92,30.13,1.8,SW,4.6,-,N/A,,Scattered Clouds,220,2013-12-27 03:08:00
9:10 PM,12.2,12.2,100,30.13,1.2,WSW,4.6,-,N/A,,Mostly Cloudy,240,2013-12-27 03:10:00
9:12 PM,12.2,12.2,100,30.12,0.8,SW,4.6,-,N/A,,Mist,230,2013-12-27 03:12:00
9:24 PM,12.2,12.2,100,30.12,0.2,SW,4.6,-,N/A,Fog,Light Freezing Fog,220,2013-12-27 03:24:00
9:53 PM,10.9,10.0,96,30.19,0.2,SSW,4.6,-,N/A,Fog,Light Freezing Fog,210,2013-12-27 03:53:00
10:41 PM,12.2,10.4,92,30.11,0.5,SSW,5.8,-,N/A,Fog,Light Freezing Fog,200,2013-12-27 04:41:00
10:53 PM,12.9,10.0,88,30.17,0.5,SSW,6.9,-,N/A,Fog,Light Freezing Fog,200,2013-12-27 04:53:00
11:18 PM,15.8,12.2,86,30.10,1.5,South,8.1,-,N/A,,Overcast,190,2013-12-27 05:18:00
11:21 PM,15.8,12.2,86,30.10,3.0,South,8.1,-,N/A,,Mostly Cloudy,190,2013-12-27 05:21:00
11:35 PM,17.6,15.8,93,30.09,7.0,South,10.4,-,N/A,,Scattered Clouds,190,2013-12-27 05:35:00
11:53 PM,17.1,12.9,84,30.14,6.0,SSE,9.2,-,N/A,,Clear,160,2013-12-27 05:53:00